Location: Asheville, NC
(35.6000°N, 82.5500°W)
Time: 02:26:24

Vanguard 2 Rocket - Pass Details

Date: 08 March 2018
Orbit: 554 x 3327 km, 32.9° (Epoch: 16 March)

Event Time Altitude Azimuth Distance (km) Brightness Sun altitude
Rises 20:21:18 0° 262° (W) 3,141 10.9 -23.0°
Reaches altitude 10° 20:23:16 10° 260° (W) 2,398 10.0 -23.4°
Maximum altitude 20:28:51 73° 176° (S) 1,168 7.2 -24.5°
Enters shadow 20:31:24 46° 106° (ESE) 1,666 7.7 -25.0°
Drops below altitude 10° 20:38:45 10° 94° (E) 4,123 - -26.4°
Sets 20:43:09 0° 93° (E) 5,589 - -27.3°
